Regional Weather Roundup
Issued by NWS

Home | Current Version | Previous Version | Text Only | Print | Product List | Glossary On
Versions: 1 2 3 4 5 6 7 8 9 10 11 12 13 14 15 16 17 18 19 20 21 22 23 24 25 26 27 28 29 30 31 32 33 34 35 36 37 38 39 40 41 42 43 44 45 46 47 48 49 50
000
ASUS43 KDTX 212001
RWRMI
MICHIGAN HOURLY REGIONAL WEATHER ROUNDUP
NATIONAL WEATHER SERVICE DETROIT/PONTIAC MI
400 PM EDT THU MAY 21 2015

NOTE: "FAIR" INDICATES FEW OR NO CLOUDS BELOW 12,000 FEET WITH NO
SIGNIFICANT WEATHER AND/OR OBSTRUCTION TO VISIBILITY.

MIZ047>049-052>055-059>063-066>070-074>076-081>083-212100-
SOUTHEAST LOWER MICHIGAN

CITY           SKY/WX    TMP DP  RH WIND       PRES   REMARKS
ADRIAN         PTSUNNY   61  37  41 NW13G18   30.00S
ALMA           PTSUNNY   65  37  35 W13G20    29.94S
ANN ARBOR      MOSUNNY   62  40  44 W15G21    29.97S
BAD AXE        MOSUNNY   65  30  26 W16G26    29.89F
CARO           MOSUNNY   66  37  33 W14G21    29.89F
DETROIT CITY   PTSUNNY   63  34  33 NW12      29.95S
DETROIT        CLOUDY    64  37  36 W12       29.96F
FLINT          CLOUDY    67  37  33 W12G26    29.93F
GROSSE ILE     PTSUNNY   63  34  34 W7        29.95S
HILLSDALE      PTSUNNY   61  38  42 W13G18    30.01S
HOWELL         CLOUDY    62  37  38 SW12G18   29.96S

CITY           SKY/WX    TMP DP  RH WIND       PRES   REMARKS
JACKSON        PTSUNNY   61  42  49 W12       29.99R
LAMBERTVILLE   PTSUNNY   61  36  39 W6        29.99R
LANSING        CLOUDY    64  35  34 W14G21    29.97F
LAPEER         CLOUDY    62  35  36 W9G17     29.92S
MASON          CLOUDY    61  37  41 W9G21     29.97F
MONROE         MOSUNNY   63  36  36 W12       29.96S
MT. CLEMENS    CLOUDY    64  38  39 W15G22    29.91F
PONTIAC        PTSUNNY   62  36  37 NW13      29.94S
PORT HOPE        N/A     67  33  28 W9G22     29.85F
PORT HURON     CLOUDY    63  37  39 SW8       29.91F
TRI CITIES     MOSUNNY   68  35  29 W18G29    29.91S
MIDLAND        FAIR      69  32  25 W14G20    29.89F
TROY           PTSUNNY   64  34  33 W9        29.96S
SAGINAW HB     PTSUNNY   68  32  26 W15G23    29.90F
$$
MIZ043>046-050>051-056>058-064>065-071>073-077>080-212100-
SOUTHWEST LOWER MICHIGAN

CITY           SKY/WX    TMP DP  RH WIND       PRES   REMARKS
BATTLE CREEK   PTSUNNY   62  39  42 NW12      30.01S
BENTON HARBOR  SUNNY     58  39  49 SW13      30.05S
BIG RAPIDS     MOSUNNY   66  24  19 NW12G20   29.92F
COLDWATER      CLOUDY    61  38  43 W10G18    30.02R
FREMONT        FAIR      64  30  27 W13G20    29.97S
HOLLAND        SUNNY     60  41  49 W16       30.04R
GRAND RAPIDS   MOSUNNY   62  33  33 SW17      29.99S
IONIA          FAIR      64  33  31 W16G23    29.97S
KALAMAZOO      MOSUNNY   62  37  39 W14       30.03R
LUDINGTON      MOSUNNY   61  39  44 SW13G21   29.96S
MARSHALL       CLOUDY    61  40  45 W13       29.99F
MOUNT PLEASANT MOSUNNY   68  31  25 SW16      29.91F
MUSKEGON       MOSUNNY   58  39  49 SW15      30.01S
SOUTH HAVEN    SUNNY     56  39  52 SW14      30.04F
$$
MIZ016>042-212100-
NORTHERN LOWER MICHIGAN

CITY           SKY/WX    TMP DP  RH WIND       PRES   REMARKS
ALPENA         CLOUDY    66  32  28 NW9G18    29.84S
BEAVER ISLAND  SUNNY     58  31  35 NW9G17    29.92R
BELLAIRE       CLOUDY    58  35  42 W10G18    29.93R
CADILLAC       PTSUNNY   65  33  29 SW10G18   29.91S
CHARLEVOIX     PTSUNNY   54  38  56 W13G21    29.96R
FRANKFORT      PTSUNNY   60  35  39 SW9       29.93S
GAYLORD        MOSUNNY   62  34  35 W17G29    29.89R
HARBOR SPRINGS MOSUNNY   49  37  64 SW13G18   29.91S
HOUGHTON LAKE  PTSUNNY   65  33  30 W14       29.89S
MANISTEE       SUNNY     64  39  39 SW14      29.94S
OSCODA         CLOUDY    70  32  24 NW9G22    29.82F
PELLSTON       MOSUNNY   64  35  34 W20       29.89S
ROGERS CITY    MOSUNNY   66  37  34 W12G23    29.85S
TRAVERSE CITY  PTSUNNY   66  37  34 W14G24    29.91R
$$
MIZ007>008-015-212100-
EASTERN UPPER MICHIGAN

CITY           SKY/WX    TMP DP  RH WIND       PRES   REMARKS
KINROSS        SUNNY     55  28  35 NW21G30   29.87R
NEWBERRY       SUNNY     54  29  38 N16G25    29.92R
S. S. MARIE    SUNNY     53  31  42 NW20G29   29.88R
$$
MIZ004>006-011>014-085-212100-
CENTRAL UPPER MICHIGAN

CITY           SKY/WX    TMP DP  RH WIND       PRES   REMARKS
MANISTIQUE     MOSUNNY   59  28  31 N16G28    29.94R
ESCANABA       SUNNY     63  32  31 N13       29.93R
MENOMINEE      PTSUNNY   57  37  47 E14       29.91R
SAWYER-GWINN   SUNNY     54  27  35 NE21G26   29.97S
$$
MIZ001>003-009>011-084-212100-
WESTERN UPPER MICHIGAN

CITY           SKY/WX    TMP DP  RH WIND       PRES   REMARKS
IRON MOUNTAIN  MOSUNNY   69  34  27 NW12G26   29.90R
HOUGHTON       SUNNY     58  29  33 N12       29.98F
COPPER HARBOR    N/A     50  33  52 N7        29.99S
IRONWOOD       SUNNY     59  30  33 N8G16     29.99S
$$

ABBREVIATIONS USED IN REMARKS
   TC - TEMPERATURE IN CELSIUS
  WCI - WIND CHILL INDEX
   HX - HEAT INDEX
  VSB - VISIBILITY




USA.gov is the U.S. government's official web portal to all federal, state and local government web resources and services.